Arlington, WA
on Thursday, November 8, 2012

Thursday
Previous Day Next Day
Daily Summary
 ActualAverageRecord
Temperature
Mean Temperature °F °F  
Max Temperature 50°F 53°F 62°F (2008)
Min Temperature 28°F 43°F 28°F (2001)
Degree Days
Heating Degree Days 26    
Moisture
Dew Point 31°F   
Average Humidity 82    
Maximum Humidity 100    
Minimum Humidity 50    
Precipitation
Precipitation 0.00 in in in ()
Wind
Wind Speed 2 mph   
Max Wind Speed 10 mph   
Max Gust Speed mph   
Visibility 9 miles   
Events     
Averages and records for this station are not official NWS values.
Key: T is trace of precipitation, MM is missing value
Source: NWS Daily Summary
Seasonal Weather Averages
Time(PST)TemperatureDew PointHumidity Pressure Visibility Wind DirectionWind SpeedGust SpeedPrecipitationEvents Conditions
12:15 AM 35.6°F 32.0°F 87% 29.97 in 10.0 miles Calm Calm - N/A   Clear
12:35 AM 35.6°F 32.0°F 87% 29.97 in 10.0 miles Calm Calm - N/A   Clear
12:55 AM 35.6°F 32.0°F 87% 29.96 in 10.0 miles Calm Calm - N/A   Clear
1:15 AM 37.4°F 33.8°F 87% 29.96 in 10.0 miles Calm Calm - N/A   Clear
1:35 AM 32.0°F 26.6°F 80% 29.95 in 6.0 miles Calm Calm - N/A   Clear
1:55 AM 33.8°F 30.2°F 87% 29.95 in 10.0 miles Calm Calm - N/A   Clear
2:15 AM 33.8°F 30.2°F 87% 29.95 in 10.0 miles Calm Calm - N/A   Clear
2:35 AM 32.0°F 30.2°F 93% 29.94 in 10.0 miles Calm Calm - N/A   Clear
2:55 AM 33.8°F 30.2°F 87% 29.94 in 10.0 miles Calm Calm - N/A   Clear
3:15 AM 32.0°F 28.4°F 87% 29.93 in 10.0 miles Calm Calm - N/A   Clear
3:35 AM 30.2°F 28.4°F 93% 29.92 in 10.0 miles Calm Calm - N/A   Clear
3:55 AM 30.2°F 26.6°F 86% 29.92 in 2.5 miles Calm Calm - N/A   Clear
4:15 AM 30.2°F 30.2°F 100% 29.91 in 10.0 miles Calm Calm - N/A   Clear
4:35 AM 30.2°F 28.4°F 93% 29.91 in 10.0 miles Calm Calm - N/A   Clear
4:55 AM 30.2°F 30.2°F 100% 29.90 in 10.0 miles Calm Calm - N/A   Clear
5:15 AM 30.2°F 26.6°F 86% 29.90 in 8.0 miles Calm Calm - N/A   Clear
5:35 AM 30.2°F 26.6°F 86% 29.90 in 1.0 miles Calm Calm - N/A   Clear
5:55 AM 30.2°F 28.4°F 93% 29.89 in 3.0 miles Calm Calm - N/A   Clear
6:15 AM 30.2°F 28.4°F 93% 29.89 in 10.0 miles Calm Calm - N/A   Clear
6:35 AM 28.4°F 26.6°F 93% 29.89 in 0.2 miles Calm Calm - N/A   Overcast
6:55 AM 28.4°F 26.6°F 93% 29.89 in 1.2 miles Calm Calm - N/A   Scattered Clouds
7:15 AM 28.4°F 26.6°F 93% 29.89 in 10.0 miles Calm Calm - N/A   Clear
7:35 AM 28.4°F 26.6°F 93% 29.89 in 1.0 miles Calm Calm - N/A   Clear
7:55 AM 28.4°F 26.6°F 93% 29.89 in 2.0 miles Calm Calm - N/A   Clear
8:15 AM 30.2°F 28.4°F 93% 29.89 in 10.0 miles Calm Calm - N/A   Clear
8:35 AM 33.8°F 32.0°F 93% 29.88 in 10.0 miles Calm Calm - N/A   Clear
8:55 AM 37.4°F 35.6°F 93% 29.87 in 10.0 miles Calm Calm - N/A   Clear
9:15 AM 39.2°F 35.6°F 87% 29.87 in 10.0 miles NW 3.5 mph - N/A   Clear
9:35 AM 39.2°F 33.8°F 81% 29.87 in 10.0 miles NW 4.6 mph - N/A   Clear
9:55 AM 39.2°F 35.6°F 87% 29.87 in 10.0 miles NW 3.5 mph - N/A   Clear
10:15 AM 39.2°F 33.8°F 81% 29.87 in 10.0 miles NW 5.8 mph - N/A   Clear
10:55 AM 44.6°F 35.6°F 71% 29.86 in 10.0 miles WNW 8.1 mph - N/A   Clear
11:15 AM 46.4°F 37.4°F 71% 29.86 in 10.0 miles NW 10.4 mph - N/A   Clear
11:35 AM 46.4°F 35.6°F 66% 29.85 in 10.0 miles NW 10.4 mph - N/A   Clear
11:55 AM 46.4°F 35.6°F 66% 29.84 in 10.0 miles WNW 8.1 mph - N/A   Clear
12:15 PM 48.2°F 37.4°F 66% 29.84 in 10.0 miles West 8.1 mph - N/A   Clear
12:35 PM 48.2°F 35.6°F 62% 29.84 in 10.0 miles WNW 6.9 mph - N/A   Clear
12:55 PM 48.2°F 33.8°F 58% 29.84 in 10.0 miles WNW 10.4 mph - N/A   Clear
1:15 PM 50.0°F 33.8°F 54% 29.84 in 10.0 miles WNW 9.2 mph - N/A   Clear
1:35 PM 50.0°F 33.8°F 54% 29.83 in 10.0 miles WNW 8.1 mph - N/A   Clear
1:55 PM 50.0°F 32.0°F 50% 29.83 in 10.0 miles WNW 9.2 mph - N/A   Clear
2:15 PM 48.2°F 33.8°F 58% 29.83 in 10.0 miles WNW 10.4 mph - N/A   Clear
2:35 PM 48.2°F 35.6°F 62% 29.82 in 10.0 miles WNW 6.9 mph - N/A   Clear
2:55 PM 48.2°F 35.6°F 62% 29.82 in 10.0 miles NW 5.8 mph - N/A   Clear
3:15 PM 48.2°F 35.6°F 62% 29.83 in 10.0 miles NW 3.5 mph - N/A   Clear
3:35 PM 48.2°F 35.6°F 62% 29.82 in 10.0 miles NW 4.6 mph - N/A   Clear
3:55 PM 48.2°F 33.8°F 58% 29.83 in 10.0 miles West 5.8 mph - N/A   Clear
4:15 PM 46.4°F 35.6°F 66% 29.82 in 10.0 miles West 6.9 mph - N/A   Clear
4:35 PM 44.6°F 33.8°F 66% 29.82 in 10.0 miles Calm Calm - N/A   Clear
4:55 PM 44.6°F 33.8°F 66% 29.82 in 10.0 miles Calm Calm - N/A   Clear
5:15 PM 42.8°F 33.8°F 70% 29.82 in 10.0 miles Calm Calm - N/A   Clear
5:35 PM 41.0°F 33.8°F 76% 29.82 in 10.0 miles Calm Calm - N/A   Clear
5:55 PM 39.2°F 33.8°F 81% 29.82 in 10.0 miles Calm Calm - N/A   Clear
6:15 PM 37.4°F 33.8°F 87% 29.83 in 10.0 miles Calm Calm - N/A   Clear
6:35 PM 39.2°F 33.8°F 81% 29.83 in 10.0 miles Calm Calm - N/A   Clear
6:55 PM 33.8°F 28.4°F 81% 29.83 in 10.0 miles Calm Calm - N/A   Clear
7:15 PM 37.4°F 35.6°F 93% 29.83 in 10.0 miles Calm Calm - N/A   Clear
7:35 PM 33.8°F 30.2°F 87% 29.83 in 10.0 miles North 3.5 mph - N/A   Clear
7:55 PM 33.8°F 30.2°F 87% 29.83 in 10.0 miles Calm Calm - N/A   Clear
8:15 PM 32.0°F 30.2°F 93% 29.83 in 10.0 miles Calm Calm - N/A   Clear
8:35 PM 33.8°F 30.2°F 87% 29.84 in 10.0 miles North 3.5 mph - N/A   Clear
8:55 PM 32.0°F 28.4°F 87% 29.84 in 10.0 miles North 3.5 mph - N/A   Clear
9:15 PM 33.8°F 30.2°F 87% 29.84 in 5.0 miles Calm Calm - N/A   Clear
9:35 PM 32.0°F 28.4°F 87% 29.85 in 9.0 miles Calm Calm - N/A   Partly Cloudy
9:55 PM 32.0°F 30.2°F 93% 29.85 in 10.0 miles Calm Calm - N/A   Mostly Cloudy
10:15 PM 33.8°F 30.2°F 87% 29.85 in 10.0 miles Calm Calm - N/A   Scattered Clouds
10:35 PM 30.2°F 28.4°F 93% 29.85 in 1.2 miles Calm Calm - N/A   Clear
10:55 PM 30.2°F 28.4°F 93% 29.85 in 10.0 miles Calm Calm - N/A   Clear
11:15 PM 30.2°F 28.4°F 93% 29.85 in 0.8 miles Calm Calm - N/A   Unknown
11:35 PM 30.2°F 28.4°F 93% 29.85 in 2.5 miles Calm Calm - N/A   Partly Cloudy
11:55 PM 30.2°F 28.4°F 93% 29.86 in 10.0 miles Calm Calm - N/A   Clear
Moon Phase
Nov. 08 Nov. 13 Nov. 20 Nov. 28 Dec. 06
Sunrise:07:05 AM (PST) Moon Rise:12:40 AM (PST)11/8
Sunset:04:38 PM (PST) Moon Set:01:45 PM (PST)11/8

Copyright © 2014 The Weather Underground, Inc.